Flag for Brazil Weather past 2 weeks in Porto Velho, Rondônia, Brazil

Now
95 °F

Passing clouds.


Feels Like: 93 °F
Forecast: 67 / 103 °F
Wind: 10 mph from North

Location: Porto Velho Aeroporto

Current Time: Aug 20, 2014 at 12:56:56 PM

Latest Report: Aug 20, 2014 at 12:00 PM


Visibility: 6 mi

Pressure: 29.95 "Hg

Humidity: 25%

Dew point: 54 °F

Location of Porto VelhoLocation

Historic Weather in Porto Velho — Graph

°F

Porto Velho temperature yesterday

Maximum temperature yesterday: 97 °F (at 4:00 PM)
Minimum temperature yesterday: 70 °F (at 5:00 AM)
Average temperature yesterday: 82 °F

Past Weeks' High & Low Weather Summary

 TemperatureHumidityPressure
High97 °F (Aug 19, 4:00 PM)100% (Aug 6, 9:00 PM)30.04 "Hg (Aug 6, 9:00 PM)
Low66 °F (Aug 15, 6:00 AM)20% (Aug 19, 4:00 PM)29.80 "Hg (Aug 6, 5:00 PM)
Average80 °F69%29.91 "Hg
* Reported Aug 5 11:00 AM — Aug 20 11:00 AM, Porto Velho, Weather by CustomWeather, © 2014

Note: Actual official high and low records may vary slightly from our data, if they occured in-between our weather recording intervals... More about our weather records

Advertising

Porto Velho weather history for previous 24 hours

 ConditionsComfort  
Time TempWeatherWind HumidityBarometerVisibility
11:00 AM
Aug 20
93 °FClear.2 mph26%29.98 "Hg6 mi
10:00 AM88 °FClear.2 mph43%29.98 "Hg6 mi
9:00 AM82 °FClear.2 mph51%29.98 "Hg5 mi
8:00 AM77 °FClear.No wind69%29.95 "Hg4 mi
7:00 AM70 °FClear.No wind88%29.92 "Hg3 mi
6:00 AM70 °FClear.No wind88%29.92 "Hg3 mi
5:00 AM68 °FPassing clouds.2 mph94%29.89 "Hg3 mi
4:00 AM70 °FClear.No wind88%29.86 "Hg3 mi
3:00 AM70 °FClear.No wind88%29.86 "Hg3 mi
2:00 AM73 °FClear.No wind83%29.86 "Hg3 mi
1:00 AM72 °FClear.No wind88%29.89 "Hg3 mi
12:00 AM72 °FClear.No wind83%29.89 "Hg3 mi
11:00 PM
Aug 19
73 °FClear.No wind78%29.89 "Hg3 mi
10:00 PM75 °FClear.No wind65%29.89 "Hg5 mi
9:00 PM77 °FClear.No wind65%29.89 "Hg10 mi
8:00 PM79 °FPassing clouds.No wind61%29.86 "HgN/A
7:00 PM84 °FPassing clouds.No wind48%29.86 "HgN/A
6:00 PM91 °FPassing clouds.5 mph30%29.86 "HgN/A
5:00 PM95 °FPassing clouds.7 mph23%29.83 "HgN/A
4:00 PM97 °FScattered clouds.8 mph20%29.83 "HgN/A
3:00 PM95 °FScattered clouds.10 mph22%29.83 "HgN/A
2:00 PM95 °FScattered clouds.13 mph23%29.86 "HgN/A
1:00 PM95 °FScattered clouds.7 mph26%29.89 "HgN/A
12:00 PM95 °FPassing clouds.12 mph26%29.92 "HgN/A
Weather by CustomWeather, © 2014

See weather overviewHow to use our weather pages